Date String (YYYY-MM-DD hh:mm:ss) UTC,Instrument flags,Ambient pressure (hPa),Sample flow (lpm),Bypass flow (lpm),Sample temperature (°C),Ambient temperature (°C),ASC tube jacket temperature (°C),LED temperature (°C),Box temperature (°C),Sample RH (%),Span deviation,Mass concentration (μg/m³),Mass concentration (μg/m³),Mass concentration (μg/m³)
DateTimeUTC,F1_M11,P_M11,Q1_M11,Q2_M11,T1_M11,T2_M11,T3_M11,T4_M11,T5_M11,U1_M11,ZSPAN_M11,X0_M11,X2_M11,X1_M11
2021-12-16 03:00:00,,0817.5,5.00,0.00,21.5,20.7,00.0,30.6,23.0,07.7,0000.0,0002.14,0000.86,0000.33
2021-12-16 03:01:00,,0817.6,5.01,0.00,21.5,20.7,00.0,30.6,23.0,07.8,0000.0,0002.11,0000.88,0000.34
2021-12-16 03:02:00,,0817.5,4.99,0.00,21.4,20.6,00.0,30.6,22.9,07.8,0000.0,0002.11,0000.86,0000.34
2021-12-16 03:03:00,,0817.5,5.01,0.00,21.3,20.5,00.0,30.5,22.8,07.8,0000.0,0002.24,0000.85,0000.34
2021-12-16 03:04:00,,0817.6,5.00,0.00,21.3,20.6,00.0,30.5,22.8,07.9,0000.0,0002.28,0000.86,0000.35
2021-12-16 03:05:00,,0817.6,5.00,0.00,21.4,21.4,00.0,30.5,23.1,07.8,0000.0,0002.24,0000.87,0000.35
2021-12-16 03:06:00,,0817.7,5.00,0.00,21.6,22.3,00.0,30.6,23.5,07.7,0000.0,0002.34,0000.88,0000.35
2021-12-16 03:07:00,,0817.5,5.01,0.00,21.7,23.0,00.0,30.7,23.8,07.7,0000.0,0002.15,0000.81,0000.35
2021-12-16 03:08:00,,0817.7,5.00,0.00,21.9,22.9,00.0,30.7,23.8,07.6,0000.0,0002.18,0000.83,0000.35
2021-12-16 03:09:00,,0818.0,5.00,0.00,21.8,22.5,00.0,30.7,23.6,07.6,0000.0,0002.22,0000.84,0000.35
2021-12-16 03:10:00,,0817.8,4.99,0.00,21.8,22.1,00.0,30.7,23.5,07.7,0000.0,0002.51,0000.90,0000.36
2021-12-16 03:11:00,,0817.7,5.01,0.00,21.7,21.7,00.0,30.7,23.3,07.7,0000.0,0002.51,0000.87,0000.36
2021-12-16 03:12:00,,0817.8,5.00,0.00,21.6,21.3,00.0,30.7,23.1,07.7,0000.0,0002.71,0000.85,0000.35
2021-12-16 03:13:00,,0818.0,5.00,0.00,21.6,21.1,00.0,30.7,23.0,07.8,0000.0,0002.81,0000.85,0000.35
2021-12-16 03:14:00,,0818.0,5.01,0.00,21.5,20.9,00.0,30.6,22.9,07.8,0000.0,0002.87,0000.86,0000.35
2021-12-16 03:15:00,,0818.0,4.99,0.00,21.4,20.7,00.0,30.6,22.8,07.8,0000.0,0002.79,0000.86,0000.34
2021-12-16 03:16:00,,0818.0,4.99,0.00,21.3,20.6,00.0,30.6,22.8,07.9,0000.0,0002.80,0000.85,0000.33
2021-12-16 03:17:00,,0818.0,5.00,0.00,21.3,20.5,00.0,30.6,22.7,07.9,0000.0,0002.64,0000.83,0000.33
2021-12-16 03:18:00,,0818.0,5.01,0.00,21.2,20.4,00.0,30.5,22.7,07.9,0000.0,0002.74,0000.86,0000.33
2021-12-16 03:19:00,,0818.0,5.00,0.00,21.2,20.4,00.0,30.5,22.6,07.9,0000.0,0002.72,0000.85,0000.33
2021-12-16 03:20:00,,0818.0,5.00,0.00,21.1,20.3,00.0,30.5,22.5,08.0,0000.0,0003.24,0000.82,0000.32
2021-12-16 03:21:00,,0818.0,5.01,0.00,21.1,20.8,00.0,30.5,22.7,08.0,0000.0,0004.08,0000.76,0000.32
2021-12-16 03:22:00,,0818.0,5.00,0.00,21.3,21.8,00.0,30.5,23.1,07.9,0000.0,0003.84,0000.71,0000.32
2021-12-16 03:23:00,,0818.0,5.00,0.00,21.5,22.6,00.0,30.5,23.5,07.8,0000.0,0003.55,0000.68,0000.33
2021-12-16 03:24:00,,0817.9,4.99,0.00,21.7,22.9,00.0,30.6,23.7,07.7,0000.0,0003.51,0000.66,0000.33
2021-12-16 03:25:00,,0818.2,5.00,0.00,21.7,22.5,00.0,30.6,23.6,07.7,0000.0,0004.82,0000.63,0000.33
2021-12-16 03:26:00,,0818.2,5.01,0.00,21.7,22.1,00.0,30.6,23.4,07.7,0000.0,0005.43,0000.62,0000.33
2021-12-16 03:27:00,,0818.3,4.99,0.00,21.6,21.8,00.0,30.6,23.2,07.7,0000.0,0005.53,0000.61,0000.33
2021-12-16 03:28:00,,0818.2,5.01,0.00,21.6,21.5,00.0,30.6,23.1,07.7,0000.0,0005.47,0000.58,0000.32
2021-12-16 03:29:00,,0818.3,5.00,0.00,21.5,21.3,00.0,30.6,23.0,07.7,0000.0,0005.51,0000.58,0000.31
2021-12-16 03:30:00,,0818.3,5.00,0.00,21.4,21.0,00.0,30.6,22.9,07.8,0000.0,0005.69,0000.58,0000.31
2021-12-16 03:31:00,,0818.1,5.00,0.00,21.4,20.9,00.0,30.6,22.9,07.8,0000.0,0005.29,0000.57,0000.32
2021-12-16 03:32:00,,0818.3,5.00,0.00,21.4,20.8,00.0,30.5,22.9,07.8,0000.0,0003.94,0000.58,0000.31
2021-12-16 03:33:00,,0818.2,5.00,0.00,21.3,20.5,00.0,30.5,22.7,07.8,0000.0,0004.61,0000.58,0000.30
2021-12-16 03:34:00,,0818.2,5.00,0.00,21.2,20.4,00.0,30.5,22.6,07.8,0000.0,0005.10,0000.58,0000.30
2021-12-16 03:35:00,,0818.3,5.00,0.00,21.2,20.3,00.0,30.5,22.6,07.8,0000.0,0005.11,0000.61,0000.30
2021-12-16 03:36:00,,0818.4,5.01,0.00,21.1,20.3,00.0,30.4,22.5,07.9,0000.0,0003.42,0000.61,0000.30
2021-12-16 03:37:00,,0818.4,4.99,0.00,21.1,20.7,00.0,30.4,22.7,07.9,0000.0,0002.89,0000.64,0000.30
2021-12-16 03:38:00,,0818.4,5.00,0.00,21.3,21.7,00.0,30.4,23.1,07.8,0000.0,0003.95,0000.69,0000.31
2021-12-16 03:39:00,,0818.5,5.00,0.00,21.5,22.6,00.0,30.5,23.4,07.8,0000.0,0004.29,0000.71,0000.32
2021-12-16 03:40:00,,0818.4,5.00,0.00,21.6,22.9,00.0,30.5,23.6,07.7,0000.0,0004.14,0000.68,0000.33
2021-12-16 03:41:00,,0818.3,4.99,0.00,21.6,22.3,00.0,30.5,23.5,07.7,0000.0,0003.91,0000.68,0000.34
2021-12-16 03:42:00,,0818.3,4.99,0.00,21.6,22.0,00.0,30.6,23.3,07.7,0000.0,0003.98,0000.68,0000.33
2021-12-16 03:43:00,,0818.3,5.01,0.00,21.6,21.6,00.0,30.6,23.1,07.6,0000.0,0003.95,0000.66,0000.33
2021-12-16 03:44:00,,0818.3,4.99,0.00,21.5,21.3,00.0,30.5,23.0,07.7,0000.0,0003.27,0000.64,0000.33
2021-12-16 03:45:00,,0818.2,4.99,0.00,21.4,21.0,00.0,30.5,22.9,07.7,0000.0,0002.68,0000.62,0000.32
2021-12-16 03:46:00,,0818.2,4.99,0.00,21.3,20.9,00.0,30.5,22.8,07.8,0000.0,0002.76,0000.65,0000.33
2021-12-16 03:47:00,,0818.2,5.00,0.00,21.3,20.7,00.0,30.5,22.7,07.8,0000.0,0002.93,0000.66,0000.32
2021-12-16 03:48:00,,0818.1,5.01,0.00,21.2,20.6,00.0,30.5,22.7,07.8,0000.0,0003.72,0000.65,0000.32
2021-12-16 03:49:00,,0818.0,4.99,0.00,21.2,20.4,00.0,30.4,22.6,07.8,0000.0,0002.83,0000.62,0000.30
2021-12-16 03:50:00,,0818.0,5.01,0.00,21.1,20.3,00.0,30.4,22.5,07.9,0000.0,0002.32,0000.59,0000.30
2021-12-16 03:51:00,,0818.0,4.98,0.00,21.1,20.2,00.0,30.4,22.5,07.9,0000.0,0002.53,0000.63,0000.29
2021-12-16 03:52:00,,0818.0,5.02,0.00,21.1,20.8,00.0,30.4,22.7,07.9,0000.0,0002.64,0000.66,0000.29
2021-12-16 03:53:00,,0817.9,5.00,0.00,21.3,21.8,00.0,30.4,23.1,07.9,0000.0,0002.65,0000.67,0000.30
2021-12-16 03:54:00,,0817.8,5.00,0.00,21.5,22.7,00.0,30.5,23.4,07.8,0000.0,0002.60,0000.68,0000.31
2021-12-16 03:55:00,,0817.6,4.99,0.00,21.6,22.8,00.0,30.5,23.5,07.7,0000.0,0002.82,0000.73,0000.32
2021-12-16 03:56:00,,0817.6,5.00,0.00,21.6,22.3,00.0,30.5,23.4,07.7,0000.0,0003.05,0000.81,0000.32
2021-12-16 03:57:00,,0817.5,5.01,0.00,21.5,21.8,00.0,30.5,23.2,07.7,0000.0,0003.08,0000.79,0000.31
2021-12-16 03:58:00,,0817.5,5.00,0.00,21.4,21.3,00.0,30.5,22.9,07.7,0000.0,0003.08,0000.78,0000.31
2021-12-16 03:59:00,,0817.3,4.99,0.00,21.4,21.0,00.0,30.5,22.8,07.7,0000.0,0002.17,0000.79,0000.32
